Weather History for Billings, MT

Change the Weather History Date:

Sunday, January 6, 2013

  Actual Average Record
Temperature  
Mean Temperature 32 °F 26 °F  
Max Temperature 40 °F 36 °F 60 °F (2006)
Min Temperature 23 °F 17 °F -21 °F (1937)
Degree Days  
Heating Degree Days 33 39  
Month to date heating degree days 222 234  
Since 1 July heating degree days 2763 3055  
Cooling Degree Days 0 0  
Month to date cooling degree days 0 0  
Year to date cooling degree days 0 0  
Moisture  
Dew Point 13 °F    
Average Humidity 47    
Maximum Humidity 60    
Minimum Humidity 33    
Precipitation  
Precipitation 0.00 in 0.01 in 0.34 in (1989)
Month to date precipitation 0.01 0.09  
Year to date precipitation 0.01 0.09  
Snow  
Snow 0.00 in 0.30 in 7.60 in (1999)
Month to date snowfall 0.1 1.7  
Since 1 July snowfall 16.4 21.6  
Snow Depth T in    
Sea Level Pressure  
Sea Level Pressure 29.98 in    
Wind  
Wind Speed 17 mph (SW)    
Max Wind Speed 30 mph    
Max Gust Speed 36 mph    
Visibility 10 miles    
Events      
T = Trace of Precipitation, MM = Missing Value Source: NWS Daily Summary

Daily Weather History Graph

Daily Weather History Graph

Search for Another Location

Airport:

Trip Planner

Search our weather history database for the weather conditions in past years. The results will help you decide how hot, cold, wet, or windy it might be!

Date:

Astronomy

Jan. 06, 2013 Rise Set
Actual Time 7:54 AM MST 4:45 PM MST
Civil Twilight 7:20 AM MST 5:19 PM MST
Nautical Twilight 6:43 AM MST 5:57 PM MST
Astronomical Twilight 6:07 AM MST 6:33 PM MST
Moon 2:05 AM MST (1/6) 12:20 PM MST (1/6)
Length of Visible Light 9h 58m
Length of Day
8h 50m
Waning Crescent, 32% of the Moon is Illuminated
Jan 6
Waning Crescent
Jan 11
New
Jan 18
First Quarter
Jan 26
Full
Feb 3
Last Quarter

Hourly Weather History & Observations

Time (MST) Temp. Windchill Dew Point Humidity Pressure Visibility Wind Dir Wind Speed Gust Speed Precip Events Conditions
12:53 AM 28.0 °F 15.3 °F 14.0 °F 56% 30.11 in 10.0 mi WSW 18.4 mph - N/A   Clear
1:53 AM 24.1 °F 13.7 °F 12.9 °F 62% 30.09 in 10.0 mi SSW 10.4 mph - N/A   Clear
2:53 AM 30.0 °F 20.0 °F 12.9 °F 49% 30.06 in 10.0 mi SW 12.7 mph - N/A   Clear
3:53 AM 28.9 °F 16.5 °F 12.9 °F 51% 30.04 in 10.0 mi SW 18.4 mph 26.5 mph N/A   Clear
4:53 AM 30.9 °F 17.5 °F 12.9 °F 47% 30.02 in 10.0 mi WSW 24.2 mph 31.1 mph N/A   Clear
5:53 AM 30.9 °F 21.7 °F 12.0 °F 46% 30.02 in 10.0 mi SW 11.5 mph - N/A   Clear
6:53 AM 32.0 °F 23.6 °F 10.9 °F 42% 30.02 in 10.0 mi SW 10.4 mph 20.7 mph N/A   Clear
7:53 AM 30.9 °F 18.7 °F 10.9 °F 43% 30.01 in 10.0 mi SW 19.6 mph 25.3 mph N/A   Clear
8:53 AM 30.9 °F 17.2 °F 10.9 °F 43% 29.99 in 10.0 mi WSW 25.3 mph 34.5 mph N/A   Clear
9:53 AM 33.1 °F 20.6 °F 10.9 °F 40% 29.98 in 10.0 mi SW 23.0 mph 31.1 mph N/A   Clear
10:53 AM 35.1 °F 23.5 °F 10.9 °F 37% 29.97 in 10.0 mi WSW 21.9 mph 32.2 mph N/A   Clear
11:53 AM 37.9 °F 30.0 °F 12.0 °F 35% 29.95 in 10.0 mi WSW 12.7 mph 24.2 mph N/A   Mostly Cloudy
12:53 PM 39.0 °F 29.6 °F 12.0 °F 33% 29.92 in 10.0 mi WSW 18.4 mph - N/A   Scattered Clouds
1:53 PM 37.9 °F 27.9 °F 12.9 °F 36% 29.92 in 10.0 mi WSW 19.6 mph 24.2 mph N/A   Partly Cloudy
2:53 PM 39.0 °F 29.6 °F 14.0 °F 36% 29.91 in 10.0 mi WSW 18.4 mph - N/A   Partly Cloudy
3:53 PM 39.0 °F 29.3 °F 14.0 °F 36% 29.91 in 10.0 mi WSW 19.6 mph - N/A   Scattered Clouds
4:53 PM 37.0 °F 27.4 °F 14.0 °F 39% 29.92 in 10.0 mi WSW 17.3 mph - N/A   Scattered Clouds
5:53 PM 37.0 °F 26.7 °F 14.0 °F 39% 29.92 in 10.0 mi WSW 19.6 mph - N/A   Mostly Cloudy
6:53 PM 37.0 °F 26.7 °F 12.9 °F 37% 29.92 in 10.0 mi WSW 19.6 mph - N/A   Partly Cloudy
7:53 PM 34.0 °F 24.6 °F 12.9 °F 42% 29.94 in 10.0 mi SW 13.8 mph - N/A   Partly Cloudy
8:53 PM 30.9 °F 19.4 °F 14.0 °F 50% 29.95 in 10.0 mi WSW 17.3 mph - N/A   Clear
9:53 PM 32.0 °F 23.0 °F 16.0 °F 52% 29.96 in 10.0 mi WSW 11.5 mph - N/A   Clear
10:53 PM 30.0 °F 21.7 °F 16.0 °F 56% 29.97 in 10.0 mi WSW 9.2 mph - N/A   Scattered Clouds
11:53 PM 30.9 °F 22.8 °F 16.0 °F 54% 29.96 in 10.0 mi SW 9.2 mph - N/A   Partly Cloudy